ONEWEB-0137 (47283 NORAD) Tracking and Keplerian Element Data

This shows tracking and keplerian element data for the satellite.

Feedback or suggestion? Click here.




ElementValue
Catalog47283
NameONEWEB-0137
Epoch Orbit172
Epoch Day62.91667824
Epoch Year2021
RAAN15.4714
Inclination87.5821
Eccentricity0.0012213
Argument of Perigee16.9626
Mean Anonmoly318.3207
Mean Motion13.84120733
Decay Rate-0.00977663
L11 47283U 20100AB 21062.91667824 -.00977663 00000-0 -92776+0 0 9991
L22 47283 87.5821 15.4714 0012213 16.9626 318.3207 13.84120733 1724

Live tracking and technical data element details for ONEWEB-0137 (NORAD 47283). ONEWEB-0137 can be tracked NOW for your location showing map with azimuth and elevation plus other details from your city location.

Track the satellite on the map from your city or location and see movement details for azimuth, elevation, latitude, longitude, range, height, and movement on the map or in text.







IsCatalogInMostPopularTable: catalog: 47283, numindb: 28
Update: records affected: 1



GetName: 47283 ONEWEB-0137

Hit Count: updated at: Fri, 05 Mar 2021 07:33:16 GMT